Zurück zum Katalog

SL-12 R/B(2)

AktivGEO
NORAD 14951·ROCKET BODY·🇷🇺 Russia

Gestartet Mar 29, 1984 von Baikonur Cosmodrome

Loading…

TLE

AktuellSource: Space-Track

Epoche: Sep 14, 2026, 01:32 UTC

1 14951U 84031F   26257.06404337 -.00000231  00000-0  00000-0 0  9992
2 14951   8.9131 312.0935 0014743 261.5108 101.1236  0.99425599120693

Verfolge SL-12 R/B(2) in Echtzeit mit AllMySat

Download on the App Store